Time,TemperatureF,DewpointF,PressureIn,WindDirection,WindDirectionDegrees,WindSpeedMPH,WindSpeedGustMPH,Humidity,HourlyPrecipIn,Conditions,Clouds,dailyrainin,SoftwareType,DateUTC
2013-06-04 00:00:00,63.5,47.4,30.25,East,90,0.9,0.9,56,0.00,,,0.00,WUHU216HW,2013-06-04 05:00:00,
2013-06-04 00:05:00,63.5,47.4,30.25,East,90,0.9,0.9,56,0.00,,,0.00,WUHU216HW,2013-06-04 05:05:00,
2013-06-04 00:30:00,63.0,48.0,30.24,ENE,68,2.0,2.0,58,0.00,,,0.00,WUHU216HW,2013-06-04 05:30:00,
2013-06-04 00:35:00,63.0,48.0,30.24,ENE,68,2.0,2.0,58,0.00,,,0.00,WUHU216HW,2013-06-04 05:35:00,
2013-06-04 00:59:00,63.0,47.4,30.24,East,90,1.8,1.8,57,0.00,,,0.00,WUHU216HW,2013-06-04 05:59:00,
2013-06-04 01:00:00,63.0,47.4,30.24,East,90,1.8,1.8,57,0.00,,,0.00,WUHU216HW,2013-06-04 06:00:00,
2013-06-04 01:05:00,63.0,47.4,30.24,East,90,1.8,1.8,57,0.00,,,0.00,WUHU216HW,2013-06-04 06:05:00,
2013-06-04 01:30:00,62.6,47.6,30.22,East,90,1.8,1.8,58,0.00,,,0.00,WUHU216HW,2013-06-04 06:30:00,
2013-06-04 01:35:00,62.6,47.6,30.22,East,90,1.8,1.8,58,0.00,,,0.00,WUHU216HW,2013-06-04 06:35:00,
2013-06-04 02:00:00,62.3,47.4,30.22,ENE,68,1.8,1.8,58,0.00,,,0.00,WUHU216HW,2013-06-04 07:00:00,
2013-06-04 02:05:00,62.3,47.4,30.22,ENE,68,1.8,1.8,58,0.00,,,0.00,WUHU216HW,2013-06-04 07:05:00,
2013-06-04 02:30:00,61.9,47.4,30.26,East,90,0.4,0.4,59,0.00,,,0.00,WUHU216HW,2013-06-04 07:30:00,
2013-06-04 02:35:00,61.9,47.4,30.26,East,90,0.4,0.4,59,0.00,,,0.00,WUHU216HW,2013-06-04 07:35:00,
2013-06-04 02:59:00,61.7,47.8,30.29,NE,45,0.4,0.4,60,0.00,,,0.00,WUHU216HW,2013-06-04 07:59:00,
2013-06-04 03:00:00,61.7,47.8,30.29,NE,45,0.4,0.4,60,0.00,,,0.00,WUHU216HW,2013-06-04 08:00:00,
2013-06-04 03:05:00,61.7,47.8,30.29,NE,45,0.4,0.4,60,0.00,,,0.00,WUHU216HW,2013-06-04 08:05:00,
2013-06-04 03:30:00,61.2,48.2,30.29,NE,45,0.0,0.0,62,0.00,,,0.00,WUHU216HW,2013-06-04 08:30:00,
2013-06-04 03:35:00,61.2,48.2,30.29,NE,45,0.0,0.0,62,0.00,,,0.00,WUHU216HW,2013-06-04 08:35:00,
2013-06-04 03:59:00,59.9,47.7,30.27,ENE,68,0.0,0.0,64,0.00,,,0.00,WUHU216HW,2013-06-04 08:59:00,
2013-06-04 04:00:00,59.9,47.7,30.27,ENE,68,0.0,0.0,64,0.00,,,0.00,WUHU216HW,2013-06-04 09:00:00,
2013-06-04 04:05:00,59.9,47.7,30.27,ENE,68,0.0,0.0,64,0.00,,,0.00,WUHU216HW,2013-06-04 09:05:00,
2013-06-04 04:29:00,59.9,48.2,30.27,East,90,0.4,0.4,65,0.00,,,0.00,WUHU216HW,2013-06-04 09:29:00,
2013-06-04 04:30:00,59.9,48.2,30.27,East,90,0.4,0.4,65,0.00,,,0.00,WUHU216HW,2013-06-04 09:30:00,
2013-06-04 04:35:00,59.9,48.2,30.27,East,90,0.4,0.4,65,0.00,,,0.00,WUHU216HW,2013-06-04 09:35:00,
2013-06-04 04:59:00,60.1,48.3,30.25,NE,45,1.3,1.3,65,0.00,,,0.00,WUHU216HW,2013-06-04 09:59:00,
2013-06-04 05:00:00,60.1,48.3,30.25,NE,45,1.3,1.3,65,0.00,,,0.00,WUHU216HW,2013-06-04 10:00:00,
2013-06-04 05:05:00,60.1,48.3,30.25,NE,45,1.3,1.3,65,0.00,,,0.00,WUHU216HW,2013-06-04 10:05:00,
2013-06-04 05:29:00,60.1,48.3,30.23,ENE,68,1.8,1.8,65,0.00,,,0.00,WUHU216HW,2013-06-04 10:29:00,
2013-06-04 05:30:00,60.1,48.3,30.23,ENE,68,1.8,1.8,65,0.00,,,0.00,WUHU216HW,2013-06-04 10:30:00,
2013-06-04 05:35:00,60.1,48.3,30.23,ENE,68,1.8,1.8,65,0.00,,,0.00,WUHU216HW,2013-06-04 10:35:00,
2013-06-04 05:59:00,60.1,48.8,30.22,ESE,113,1.8,1.8,66,0.00,,,0.00,WUHU216HW,2013-06-04 10:59:00,
2013-06-04 06:00:00,60.1,48.8,30.22,ESE,113,1.8,1.8,66,0.00,,,0.00,WUHU216HW,2013-06-04 11:00:00,
2013-06-04 06:05:00,60.1,48.8,30.22,ESE,113,1.8,1.8,66,0.00,,,0.00,WUHU216HW,2013-06-04 11:05:00,
2013-06-04 06:30:00,60.3,49.3,30.24,ENE,68,0.0,0.0,67,0.00,,,0.00,WUHU216HW,2013-06-04 11:30:00,
2013-06-04 06:35:00,60.3,49.3,30.24,ENE,68,0.0,0.0,67,0.00,,,0.00,WUHU216HW,2013-06-04 11:35:00,
2013-06-04 06:59:00,60.3,50.1,30.24,ESE,113,2.9,2.9,69,0.00,,,0.00,WUHU216HW,2013-06-04 11:59:00,
2013-06-04 07:00:00,60.3,50.1,30.24,ESE,113,2.9,2.9,69,0.00,,,0.00,WUHU216HW,2013-06-04 12:00:00,
2013-06-04 07:05:00,60.3,50.1,30.24,ESE,113,2.9,2.9,69,0.00,,,0.00,WUHU216HW,2013-06-04 12:05:00,
2013-06-04 07:30:00,60.1,51.1,30.23,ENE,68,1.8,1.8,72,0.00,,,0.00,WUHU216HW,2013-06-04 12:30:00,
2013-06-04 07:35:00,60.1,51.1,30.23,ENE,68,1.8,1.8,72,0.00,,,0.00,WUHU216HW,2013-06-04 12:35:00,
2013-06-04 07:59:00,60.7,51.7,30.25,East,90,3.8,3.8,72,0.00,,,0.00,WUHU216HW,2013-06-04 12:59:00,
2013-06-04 08:00:00,60.7,51.7,30.25,East,90,3.8,3.8,72,0.00,,,0.00,WUHU216HW,2013-06-04 13:00:00,
2013-06-04 08:05:00,60.7,51.7,30.25,East,90,3.8,3.8,72,0.00,,,0.00,WUHU216HW,2013-06-04 13:05:00,
2013-06-04 08:29:00,60.8,51.8,30.25,ESE,113,1.8,1.8,72,0.00,,,0.00,WUHU216HW,2013-06-04 13:29:00,
2013-06-04 08:30:00,60.8,51.8,30.25,ESE,113,1.8,1.8,72,0.00,,,0.00,WUHU216HW,2013-06-04 13:30:00,
2013-06-04 08:35:00,60.8,51.8,30.25,ESE,113,1.8,1.8,72,0.00,,,0.00,WUHU216HW,2013-06-04 13:35:00,
2013-06-04 08:59:00,61.2,52.2,30.26,North,0,1.8,1.8,72,0.01,,,0.00,WUHU216HW,2013-06-04 13:59:00,
2013-06-04 09:00:00,61.2,52.2,30.26,North,0,1.8,1.8,72,0.01,,,0.00,WUHU216HW,2013-06-04 14:00:00,
2013-06-04 09:05:00,61.2,52.2,30.26,North,0,1.8,1.8,72,0.01,,,0.00,WUHU216HW,2013-06-04 14:05:00,
2013-06-04 09:29:00,61.6,52.5,30.25,ENE,68,1.1,1.1,72,0.01,,,0.01,WUHU216HW,2013-06-04 14:29:00,
2013-06-04 09:30:00,61.6,52.5,30.25,ENE,68,1.1,1.1,72,0.01,,,0.01,WUHU216HW,2013-06-04 14:30:00,
2013-06-04 09:35:00,61.6,52.5,30.25,ENE,68,1.1,1.1,72,0.01,,,0.01,WUHU216HW,2013-06-04 14:35:00,
2013-06-04 10:00:00,62.3,53.1,30.26,NW,315,2.5,2.5,72,0.00,,,0.01,WUHU216HW,2013-06-04 15:00:00,
2013-06-04 10:05:00,62.3,53.1,30.26,NW,315,2.5,2.5,72,0.00,,,0.01,WUHU216HW,2013-06-04 15:05:00,
2013-06-04 10:30:00,62.3,53.5,30.27,SSW,203,0.9,0.9,73,0.00,,,0.01,WUHU216HW,2013-06-04 15:30:00,
2013-06-04 10:35:00,62.3,53.5,30.27,SSW,203,0.9,0.9,73,0.00,,,0.01,WUHU216HW,2013-06-04 15:35:00,
2013-06-04 11:00:00,62.6,53.8,30.28,East,90,0.7,0.7,73,0.00,,,0.01,WUHU216HW,2013-06-04 16:00:00,
2013-06-04 11:05:00,62.6,53.8,30.28,East,90,0.7,0.7,73,0.00,,,0.01,WUHU216HW,2013-06-04 16:05:00,
2013-06-04 11:30:00,63.0,54.2,30.30,South,180,2.7,2.7,73,0.00,,,0.01,WUHU216HW,2013-06-04 16:30:00,
2013-06-04 11:35:00,63.0,54.2,30.30,South,180,2.7,2.7,73,0.00,,,0.01,WUHU216HW,2013-06-04 16:35:00,
2013-06-04 12:00:00,63.2,54.4,30.30,East,90,2.5,2.5,73,0.00,,,0.01,WUHU216HW,2013-06-04 17:00:00,
2013-06-04 12:05:00,63.2,54.4,30.30,East,90,2.5,2.5,73,0.00,,,0.01,WUHU216HW,2013-06-04 17:05:00,
2013-06-04 12:30:00,63.7,54.5,30.29,ESE,113,3.4,3.4,72,0.00,,,0.01,WUHU216HW,2013-06-04 17:30:00,
2013-06-04 12:38:00,63.7,54.5,30.29,ESE,113,3.4,3.4,72,0.00,,,0.01,WUHU216HW,2013-06-04 17:38:00,
2013-06-04 12:59:00,62.6,53.8,30.29,ENE,68,1.8,1.8,73,0.00,,,0.01,WUHU216HW,2013-06-04 17:59:00,
2013-06-04 13:00:00,62.6,53.8,30.29,ENE,68,1.8,1.8,73,0.00,,,0.01,WUHU216HW,2013-06-04 18:00:00,
2013-06-04 13:05:00,62.6,53.8,30.29,ENE,68,1.8,1.8,73,0.00,,,0.01,WUHU216HW,2013-06-04 18:05:00,
2013-06-04 13:29:00,61.6,53.6,30.29,ENE,68,2.7,2.7,75,0.00,,,0.01,WUHU216HW,2013-06-04 18:29:00,
2013-06-04 13:30:00,61.6,53.6,30.29,ENE,68,2.7,2.7,75,0.00,,,0.01,WUHU216HW,2013-06-04 18:30:00,
2013-06-04 13:37:00,61.6,53.6,30.29,ENE,68,2.7,2.7,75,0.00,,,0.01,WUHU216HW,2013-06-04 18:37:00,
2013-06-04 13:59:00,61.4,53.7,30.29,ENE,68,2.5,2.5,76,0.00,,,0.01,WUHU216HW,2013-06-04 18:59:00,
2013-06-04 14:00:00,61.4,53.7,30.29,ENE,68,2.5,2.5,76,0.00,,,0.01,WUHU216HW,2013-06-04 19:00:00,
2013-06-04 14:05:00,61.4,53.7,30.29,ENE,68,2.5,2.5,76,0.00,,,0.01,WUHU216HW,2013-06-04 19:05:00,
2013-06-04 14:29:00,60.8,54.0,30.29,East,90,2.2,2.2,78,0.01,,,0.01,WUHU216HW,2013-06-04 19:29:00,
2013-06-04 14:30:00,60.8,54.0,30.29,East,90,2.2,2.2,78,0.01,,,0.01,WUHU216HW,2013-06-04 19:30:00,
2013-06-04 14:35:00,60.8,54.0,30.29,East,90,2.2,2.2,78,0.01,,,0.01,WUHU216HW,2013-06-04 19:35:00,
2013-06-04 14:59:00,60.7,54.2,30.28,ENE,68,3.6,3.6,79,0.01,,,0.02,WUHU216HW,2013-06-04 19:59:00,
2013-06-04 15:00:00,60.7,54.2,30.28,ENE,68,3.6,3.6,79,0.01,,,0.02,WUHU216HW,2013-06-04 20:00:00,
2013-06-04 15:05:00,60.7,54.2,30.28,ENE,68,3.6,3.6,79,0.01,,,0.02,WUHU216HW,2013-06-04 20:05:00,
2013-06-04 15:29:00,60.8,54.0,30.28,SE,135,2.2,2.2,78,0.00,,,0.02,WUHU216HW,2013-06-04 20:29:00,
2013-06-04 15:30:00,60.8,54.0,30.28,SE,135,2.2,2.2,78,0.00,,,0.02,WUHU216HW,2013-06-04 20:30:00,
2013-06-04 15:35:00,60.8,54.0,30.28,SE,135,2.2,2.2,78,0.00,,,0.02,WUHU216HW,2013-06-04 20:35:00,
2013-06-04 15:59:00,61.9,54.3,30.27,ESE,113,2.7,2.7,76,0.00,,,0.02,WUHU216HW,2013-06-04 20:59:00,
2013-06-04 16:00:00,61.9,54.3,30.27,ESE,113,2.7,2.7,76,0.00,,,0.02,WUHU216HW,2013-06-04 21:00:00,
2013-06-04 16:05:00,61.9,54.3,30.27,ESE,113,2.7,2.7,76,0.00,,,0.02,WUHU216HW,2013-06-04 21:05:00,
2013-06-04 16:29:00,62.3,53.8,30.28,East,90,2.0,2.0,74,0.00,,,0.02,WUHU216HW,2013-06-04 21:29:00,
2013-06-04 16:30:00,62.3,53.8,30.28,East,90,2.0,2.0,74,0.00,,,0.02,WUHU216HW,2013-06-04 21:30:00,
2013-06-04 16:35:00,62.3,53.8,30.28,East,90,2.0,2.0,74,0.00,,,0.02,WUHU216HW,2013-06-04 21:35:00,
2013-06-04 16:59:00,62.3,53.8,30.29,East,90,4.5,4.5,74,0.00,,,0.02,WUHU216HW,2013-06-04 21:59:00,
2013-06-04 17:00:00,62.3,53.8,30.29,East,90,4.5,4.5,74,0.00,,,0.02,WUHU216HW,2013-06-04 22:00:00,
2013-06-04 17:05:00,62.3,53.8,30.29,East,90,4.5,4.5,74,0.00,,,0.02,WUHU216HW,2013-06-04 22:05:00,
2013-06-04 17:29:00,62.3,53.5,30.29,East,90,1.3,1.3,73,0.00,,,0.02,WUHU216HW,2013-06-04 22:29:00,
2013-06-04 17:30:00,62.3,53.5,30.29,East,90,1.3,1.3,73,0.00,,,0.02,WUHU216HW,2013-06-04 22:30:00,
2013-06-04 17:35:00,62.3,53.5,30.29,East,90,1.3,1.3,73,0.00,,,0.02,WUHU216HW,2013-06-04 22:35:00,
2013-06-04 17:59:00,61.6,53.2,30.29,ENE,68,5.1,5.1,74,0.00,,,0.02,WUHU216HW,2013-06-04 22:59:00,
2013-06-04 18:00:00,61.6,53.2,30.29,ENE,68,5.1,5.1,74,0.00,,,0.02,WUHU216HW,2013-06-04 23:00:00,
2013-06-04 18:05:00,61.6,53.2,30.29,ENE,68,5.1,5.1,74,0.00,,,0.02,WUHU216HW,2013-06-04 23:05:00,
2013-06-04 18:30:00,60.8,52.9,30.29,East,90,3.8,3.8,75,0.00,,,0.02,WUHU216HW,2013-06-04 23:30:00,
2013-06-04 18:35:00,60.8,52.9,30.29,East,90,3.8,3.8,75,0.00,,,0.02,WUHU216HW,2013-06-04 23:35:00,
2013-06-04 18:59:00,59.8,52.6,30.29,East,90,3.4,3.4,77,0.00,,,0.02,WUHU216HW,2013-06-04 23:59:00,
2013-06-04 19:00:00,59.8,52.6,30.29,East,90,3.4,3.4,77,0.00,,,0.02,WUHU216HW,2013-06-05 00:00:00,
2013-06-04 19:05:00,59.8,52.6,30.29,East,90,3.4,3.4,77,0.00,,,0.02,WUHU216HW,2013-06-05 00:05:00,
2013-06-04 19:29:00,59.2,52.0,30.29,East,90,0.4,0.4,77,0.00,,,0.02,WUHU216HW,2013-06-05 00:29:00,
2013-06-04 19:30:00,59.2,52.0,30.29,East,90,0.4,0.4,77,0.00,,,0.02,WUHU216HW,2013-06-05 00:30:00,
2013-06-04 19:35:00,59.2,52.0,30.29,East,90,0.4,0.4,77,0.00,,,0.02,WUHU216HW,2013-06-05 00:35:00,
2013-06-04 19:59:00,59.0,51.8,30.29,East,90,2.5,2.5,77,0.00,,,0.02,WUHU216HW,2013-06-05 00:59:00,
2013-06-04 20:00:00,59.0,51.8,30.29,East,90,2.5,2.5,77,0.00,,,0.02,WUHU216HW,2013-06-05 01:00:00,
2013-06-04 20:05:00,59.0,51.8,30.29,East,90,2.5,2.5,77,0.00,,,0.02,WUHU216HW,2013-06-05 01:05:00,
2013-06-04 20:30:00,58.9,51.3,30.30,NE,45,0.9,0.9,76,0.00,,,0.02,WUHU216HW,2013-06-05 01:30:00,
2013-06-04 20:35:00,58.9,51.3,30.30,NE,45,0.9,0.9,76,0.00,,,0.02,WUHU216HW,2013-06-05 01:35:00,
2013-06-04 20:59:00,58.7,51.1,30.31,ENE,68,0.2,0.2,76,0.00,,,0.02,WUHU216HW,2013-06-05 01:59:00,
2013-06-04 21:00:00,58.7,51.1,30.31,ENE,68,0.2,0.2,76,0.00,,,0.02,WUHU216HW,2013-06-05 02:00:00,
2013-06-04 21:05:00,58.7,51.1,30.31,ENE,68,0.2,0.2,76,0.00,,,0.02,WUHU216HW,2013-06-05 02:05:00,
2013-06-04 21:29:00,58.3,50.8,30.31,ENE,68,1.1,1.1,76,0.00,,,0.02,WUHU216HW,2013-06-05 02:29:00,
2013-06-04 21:30:00,58.3,50.8,30.31,ENE,68,1.1,1.1,76,0.00,,,0.02,WUHU216HW,2013-06-05 02:30:00,
2013-06-04 21:35:00,58.3,50.8,30.31,ENE,68,1.1,1.1,76,0.00,,,0.02,WUHU216HW,2013-06-05 02:35:00,
2013-06-04 21:59:00,58.1,50.9,30.31,ESE,113,0.7,0.7,77,0.00,,,0.02,WUHU216HW,2013-06-05 02:59:00,
2013-06-04 22:00:00,58.1,50.9,30.31,ESE,113,0.7,0.7,77,0.00,,,0.02,WUHU216HW,2013-06-05 03:00:00,
2013-06-04 22:05:00,58.1,50.9,30.31,ESE,113,0.7,0.7,77,0.00,,,0.02,WUHU216HW,2013-06-05 03:05:00,
2013-06-04 22:29:00,57.6,50.4,30.30,ESE,113,4.0,4.0,77,0.00,,,0.02,WUHU216HW,2013-06-05 03:29:00,
2013-06-04 22:30:00,57.6,50.4,30.30,ESE,113,4.0,4.0,77,0.00,,,0.02,WUHU216HW,2013-06-05 03:30:00,
2013-06-04 22:35:00,57.6,50.4,30.30,ESE,113,4.0,4.0,77,0.00,,,0.02,WUHU216HW,2013-06-05 03:35:00,
2013-06-04 23:00:00,57.2,50.0,30.30,ENE,68,2.0,2.0,77,0.00,,,0.02,WUHU216HW,2013-06-05 04:00:00,
2013-06-04 23:01:00,57.2,50.0,30.30,ENE,68,2.0,2.0,77,0.00,,,0.02,WUHU216HW,2013-06-05 04:01:00,
2013-06-04 23:02:00,57.2,50.0,30.30,ENE,68,2.0,2.0,77,0.00,,,0.02,WUHU216HW,2013-06-05 04:02:00,
2013-06-04 23:07:00,57.2,50.0,30.30,ENE,68,2.0,2.0,77,0.00,,,0.02,WUHU216HW,2013-06-05 04:07:00,
2013-06-04 23:30:00,57.1,50.2,30.29,ESE,113,0.4,0.4,78,0.00,,,0.02,WUHU216HW,2013-06-05 04:30:00,
2013-06-04 23:35:00,57.1,50.2,30.29,ESE,113,0.4,0.4,78,0.00,,,0.02,WUHU216HW,2013-06-05 04:35:00,